User: anonymous   Login
Location: Unspecified
(0.0000°N, 0.0000°E)
Time: 08:01:46
(UTC+00:00)
Language:

Hubble Space Telescope - Orbit

View from above orbital plane
View from above orbital plane
View from above satellite
View from above satellite

Ground track
Ground track

The orbit data is extracted from the following two-line orbital elements,

1 20580U 90037B   16144.23417149  .00000914  00000-0  46142-4 0  9996
2 20580  28.4703  63.4998 0002584 302.1991 189.9562 15.08364144231343
Epoch (UTC): 23 May 2016 05:37:12
Eccentricity: 0.0002584
inclination: 28.4703°
perigee height: 539 km
apogee height: 543 km
right ascension of ascending node: 63.4998°
argument of perigee: 302.1991°
revolutions per day: 15.08364144
mean anomaly at epoch: 189.9562°
orbit number at epoch: 23134

The dashed part of the orbit path shows where the satellite is in the earth's shadow,  

DLR